Terminal Aerodrome Forecast
Issued by NWS

Current Version | Previous Version | Text Only | Print | Product List | Glossary Off
Versions: 1 2 3 4 5 6 7 8 9 10 11 12

000
FTUS41 KRNK 202336
TAFLWB
TAF
KLWB 202336Z 2100/2124 11005KT P6SM SCT250
     FM211000 VRB03KT P6SM SCT250
     FM211400 25005KT P6SM BKN250=

USA.gov is the U.S. government's official web portal to all federal, state and local government web resources and services.